Regional Weather Roundup
Issued by NWS

Home | Current Version | Previous Version | Text Only | Print | Product List | Glossary Off
Versions: 1 2 3 4 5 6 7 8 9 10 11 12 13 14 15 16 17 18 19 20 21 22 23 24 25 26 27 28 29 30 31 32 33 34 35 36 37 38 39 40 41 42 43 44 45 46 47 48 49 50

000
ASUS44 KMEG 182110
RWRTN
TENNESSEE HOURLY STATE WEATHER ROUNDUP
NATIONAL WEATHER SERVICE MEMPHIS TN
400 PM CDT THU SEP 18 2014

TNZ002-004-019-021-049-052-054-088>092-182200-
WEST TENNESSEE

CITY           SKY/WX    TMP DP  RH WIND       PRES   REMARKS
MEMPHIS INTL   PTSUNNY   82  68  62 E8        29.92S
NWS MEMPHIS      N/A     79 N/A N/A MISG        N/A
JACKSON        PTSUNNY   74  63  68 E8        29.95F
DYERSBURG      CLOUDY    70  55  60 E3        29.97F
UNION CITY     SUNNY     72  59  64 NE8       29.96S
PARIS          SUNNY     72  57  60 NE7       29.98F
HUNTINGDON     PTSUNNY   71  59  66 NE8       29.97F
LEXINGTON      PTSUNNY   72  63  73 CALM      29.95S
SAVANNAH       SUNNY     72  72 100 VRB6      29.95F
$$

TNZ008-025-027-028-033-062-065-066-182200-
NORTH MIDDLE TENNESSEE

CITY           SKY/WX    TMP DP  RH WIND       PRES   REMARKS
NASHVILLE      CLOUDY    76  56  49 N6        29.99S
DICKSON        CLOUDY    70  59  68 CALM      29.99F
PORTLAND       SUNNY     73  57  56 CALM      29.99F
CLARKSVILLE    PTSUNNY   76  55  48 E5        29.98F
LEBANON        CLOUDY    76  57  51 N6        29.97F
SMYRNA         PTSUNNY   77  56  48 N7        29.99S
MURFREESBORO   CLOUDY    76  54  46 NE5       29.97F
COOKEVILLE     SUNNY     79  63  57 NW3       29.99S
LIVINGSTON     CLOUDY    72  58  61 VRB5      30.02S
GALLATIN       CLOUDY    76  61  59 N6        29.99F
CROSSVILLE     CLOUDY    75  53  46 NE5       30.02S
$$

TNZ061-075-076-078-094-096-097-182200-
SOUTH MIDDLE TENNESSEE

CITY           SKY/WX    TMP DP  RH WIND       PRES   REMARKS
LEWISBURG      CLOUDY    78  57  48 N3        29.97F
FAYETTEVILLE   SUNNY     77  57  50 NW3       29.97S
TULLAHOMA      SUNNY     79  54  41 N7        29.98F
WINCHESTER     SUNNY     81  54  39 W5        29.96F
MCMINNVILLE    SUNNY     77  57  50 NE6       29.99S
COLUMBIA       MOSUNNY   79  59  50 NE5       29.95F
SHELBYVILLE    SUNNY     81  59  47 N6        29.98S
$$

TNZ017-018-042-046-047-182200-
NORTHEAST TENNESSEE

CITY           SKY/WX    TMP DP  RH WIND       PRES   REMARKS
TRI CITIES     PTSUNNY   76  53  44 N8        30.01S
ELIZABETHTON   PTCLDY    75  54  46 W5        30.00F
$$

TNZ012-013-036-069-073-074-182200-
CENTRAL EAST TENNESSEE

CITY           SKY/WX    TMP DP  RH WIND       PRES   REMARKS
KNOXVILLE      CLOUDY    78  53  41 NE8       29.97S
OAK RIDGE      PTSUNNY   78  55  44 VRB5      30.00S
GATLINBURG     CLEAR     77  55  47 N6        29.98S
MORRISTOWN     CLEAR     73  54  49 N7        30.02R
$$

TNZ083-085-099-182200-
SOUTHEAST TENNESSEE

CITY           SKY/WX    TMP DP  RH WIND       PRES   REMARKS
CHATTANOOGA    PTSUNNY   81  52  36 NE8       29.96F
$$

SKY/WX REPORTED AS FAIR MEANS FEW OR NO CLOUDS BELOW
12 THOUSAND FEET.



USA.gov is the U.S. government's official web portal to all federal, state and local government web resources and services.